Weather History for Grafton, ND

Change the Weather History Date:

Monday, April 9, 2012

  Actual Average Record
Temperature  
Mean Temperature 32 °F -  
Max Temperature 37 °F 50 °F 83 °F (1977)
Min Temperature 24 °F 27 °F 8 °F (1960)
Degree Days  
Heating Degree Days 34    
Moisture  
Dew Point 16 °F    
Average Humidity 55    
Maximum Humidity 80    
Minimum Humidity 41    
Precipitation  
Precipitation 0.43 in - - ()
Sea Level Pressure  
Sea Level Pressure 30.19 in    
Wind  
Wind Speed 15 mph (NNW)    
Max Wind Speed 22 mph    
Max Gust Speed 32 mph    
Visibility 10 miles    
Events Rain , Snow    
Averages and records for this station are not official NWS values.
T = Trace of Precipitation, MM = Missing Value Source: NWS Daily Summary

Daily Weather History Graph

Daily Weather History Graph

Search for Another Location

Airport:

Trip Planner

Search our weather history database for the weather conditions in past years. The results will help you decide how hot, cold, wet, or windy it might be!

Date:

Astronomy

Apr. 09, 2012 Rise Set
Actual Time 6:50 AM CDT 8:12 PM CDT
Civil Twilight 6:17 AM CDT 8:45 PM CDT
Nautical Twilight 5:38 AM CDT 9:24 PM CDT
Astronomical Twilight 4:56 AM CDT 10:06 PM CDT
Moon No Moon Rise 8:20 AM CDT (4/9)
Length of Visible Light 14h 27m
Length of Day
13h 22m
Waning Gibbous, 88% of the Moon is Illuminated
Apr 9
Waning Gibbous
Apr 13
Last Quarter
Apr 21
New
Apr 29
First Quarter
May 5
Full

Hourly Weather History & Observations

Time (CDT) Temp. Windchill Dew Point Humidity Pressure Visibility Wind Dir Wind Speed Gust Speed Precip Events Conditions
12:15 AM 32.0 °F 21.2 °F 19.4 °F 60% 30.13 in 10.0 mi NW 16.1 mph 23.0 mph N/A   Overcast
12:35 AM 32.0 °F 22.5 °F 17.6 °F 55% 30.13 in 10.0 mi NW 12.7 mph - N/A   Scattered Clouds
12:55 AM 32.0 °F 23.6 °F 19.4 °F 60% 30.13 in 10.0 mi WNW 10.4 mph - N/A   Partly Cloudy
1:15 AM 30.2 °F 20.8 °F 19.4 °F 64% 30.13 in 10.0 mi WNW 11.5 mph - N/A   Clear
1:35 AM 32.0 °F 23.6 °F 19.4 °F 60% 30.13 in 10.0 mi WNW 10.4 mph - N/A   Mostly Cloudy
1:55 AM 32.0 °F 22.5 °F 19.4 °F 60% 30.13 in 10.0 mi WNW 12.7 mph - N/A   Overcast
2:15 AM 32.0 °F 21.2 °F 19.4 °F 60% 30.13 in 10.0 mi WNW 16.1 mph 20.7 mph N/A   Overcast
2:35 AM 32.0 °F 20.8 °F 17.6 °F 55% 30.13 in 10.0 mi NW 17.3 mph 25.3 mph N/A   Overcast
2:55 AM 32.0 °F 20.8 °F 15.8 °F 51% 30.14 in 10.0 mi NW 17.3 mph 24.2 mph N/A   Overcast
3:15 AM 32.0 °F 20.5 °F 15.8 °F 51% 30.14 in 10.0 mi NW 18.4 mph 23.0 mph N/A   Overcast
3:35 AM 32.0 °F 22.5 °F 17.6 °F 55% 30.14 in 10.0 mi NW 12.7 mph - N/A   Overcast
3:55 AM 32.0 °F 23.0 °F 17.6 °F 55% 30.14 in 10.0 mi NW 11.5 mph - N/A   Overcast
4:15 AM 32.0 °F 23.0 °F 19.4 °F 60% 30.14 in 10.0 mi NW 11.5 mph 17.3 mph N/A   Overcast
4:35 AM 30.2 °F 19.3 °F 19.4 °F 64% 30.14 in 10.0 mi NW 15.0 mph 20.7 mph N/A   Overcast
4:55 AM 30.2 °F 19.3 °F 15.8 °F 55% 30.15 in 10.0 mi NW 15.0 mph 21.9 mph N/A   Overcast
5:15 AM 30.2 °F 17.4 °F 15.8 °F 55% 30.15 in 10.0 mi NW 20.7 mph 27.6 mph N/A   Overcast
5:35 AM 28.4 °F 15.1 °F 14.0 °F 55% 30.16 in 10.0 mi WNW 20.7 mph 32.2 mph N/A   Mostly Cloudy
5:55 AM 28.4 °F 15.1 °F 14.0 °F 55% 30.16 in 10.0 mi NW 20.7 mph 28.8 mph N/A   Scattered Clouds
6:15 AM 28.4 °F 15.4 °F 14.0 °F 55% 30.16 in 10.0 mi NW 19.6 mph 26.5 mph N/A   Overcast
6:35 AM 28.4 °F 14.7 °F 12.2 °F 51% 30.16 in 10.0 mi NW 21.9 mph 32.2 mph N/A   Overcast
6:55 AM 28.4 °F 15.1 °F 12.2 °F 51% 30.17 in 10.0 mi NW 20.7 mph 28.8 mph N/A   Overcast
7:15 AM 28.4 °F 16.6 °F 14.0 °F 55% 30.17 in 10.0 mi NNW 16.1 mph 25.3 mph N/A   Overcast
7:35 AM 28.4 °F 17.5 °F 14.0 °F 55% 30.18 in 10.0 mi NW 13.8 mph 20.7 mph N/A   Overcast
7:55 AM 28.4 °F 17.5 °F 17.6 °F 64% 30.19 in 10.0 mi NW 13.8 mph - N/A   Overcast
8:15 AM 28.4 °F 15.1 °F 19.4 °F 69% 30.19 in 9.0 mi NW 20.7 mph 27.6 mph N/A Rain Light Freezing Rain
8:35 AM 28.4 °F 16.6 °F 17.6 °F 64% 30.18 in 10.0 mi NW 16.1 mph 20.7 mph N/A   Overcast
8:55 AM 28.4 °F 16.6 °F 17.6 °F 64% 30.18 in 10.0 mi NNW 16.1 mph 19.6 mph N/A   Overcast
9:15 AM 28.4 °F 18.0 °F 19.4 °F 69% 30.19 in 10.0 mi NW 12.7 mph - N/A Rain Light Freezing Rain
9:35 AM 28.4 °F 15.1 °F 15.8 °F 59% 30.19 in 10.0 mi NW 20.7 mph 27.6 mph N/A   Overcast
9:55 AM 28.4 °F 16.2 °F 15.8 °F 59% 30.20 in 10.0 mi NW 17.3 mph 25.3 mph N/A   Overcast
10:15 AM 28.4 °F 17.0 °F 19.4 °F 69% 30.20 in 10.0 mi NNW 15.0 mph 24.2 mph N/A   Overcast
10:35 AM 28.4 °F 17.0 °F 17.6 °F 64% 30.20 in 10.0 mi NNW 15.0 mph - N/A   Overcast
10:55 AM 28.4 °F 17.0 °F 15.8 °F 59% 30.20 in 8.0 mi NNW 15.0 mph 21.9 mph N/A   Mostly Cloudy
11:15 AM 26.6 °F 14.3 °F 21.2 °F 80% 30.21 in 2.5 mi North 16.1 mph - N/A Snow Light Snow
11:35 AM 28.4 °F 17.5 °F 19.4 °F 69% 30.22 in 7.0 mi North 13.8 mph 20.7 mph N/A Snow Light Snow
11:55 AM 28.4 °F 17.5 °F 17.6 °F 64% 30.23 in 10.0 mi North 13.8 mph 20.7 mph N/A Rain Light Freezing Rain
12:15 PM 30.2 °F 20.8 °F 17.6 °F 60% 30.23 in 10.0 mi North 11.5 mph 20.7 mph N/A   Overcast
12:35 PM 30.2 °F 19.8 °F 17.6 °F 60% 30.22 in 10.0 mi NNW 13.8 mph 18.4 mph N/A   Overcast
12:55 PM 30.2 °F 19.3 °F 15.8 °F 55% 30.22 in 10.0 mi NNW 15.0 mph 23.0 mph N/A   Overcast
1:15 PM 32.0 °F 21.6 °F 15.8 °F 51% 30.22 in 10.0 mi WNW 15.0 mph 19.6 mph N/A   Overcast
1:35 PM 32.0 °F 20.8 °F 15.8 °F 51% 30.21 in 10.0 mi North 17.3 mph 26.5 mph N/A   Overcast
1:55 PM 32.0 °F 21.6 °F 15.8 °F 51% 30.22 in 10.0 mi NNW 15.0 mph 32.2 mph N/A   Overcast
2:35 PM 33.8 °F 23.9 °F 15.8 °F 48% 30.21 in 9.0 mi NW 15.0 mph 29.9 mph N/A   Overcast
2:55 PM 35.6 °F 26.6 °F 15.8 °F 44% 30.20 in 10.0 mi NNW 13.8 mph 26.5 mph N/A   Overcast
3:15 PM 35.6 °F 25.5 °F 15.8 °F 44% 30.20 in 10.0 mi NNW 17.3 mph 23.0 mph N/A   Overcast
3:35 PM 35.6 °F 26.2 °F 15.8 °F 44% 30.20 in 10.0 mi NNW 15.0 mph 24.2 mph N/A   Overcast
3:55 PM 35.6 °F 26.6 °F 15.8 °F 44% 30.19 in 10.0 mi NNW 13.8 mph 17.3 mph N/A   Overcast
4:15 PM 35.6 °F 27.5 °F 15.8 °F 44% 30.19 in 10.0 mi North 11.5 mph 17.3 mph N/A   Mostly Cloudy
4:35 PM 37.4 °F 30.3 °F 15.8 °F 41% 30.18 in 10.0 mi North 10.4 mph - N/A   Mostly Cloudy
4:55 PM 35.6 °F 29.2 °F 15.8 °F 44% 30.18 in 10.0 mi North 8.1 mph - N/A   Mostly Cloudy
5:15 PM 35.6 °F 26.6 °F 15.8 °F 44% 30.18 in 10.0 mi North 13.8 mph 18.4 mph N/A   Mostly Cloudy
5:35 PM 37.4 °F 28.9 °F 15.8 °F 41% 30.18 in 10.0 mi North 13.8 mph 18.4 mph N/A   Mostly Cloudy
5:55 PM 35.6 °F 26.6 °F 15.8 °F 44% 30.18 in 10.0 mi NNW 13.8 mph 18.4 mph N/A   Mostly Cloudy
6:15 PM 35.6 °F 27.1 °F 15.8 °F 44% 30.18 in 10.0 mi North 12.7 mph - N/A   Scattered Clouds
6:35 PM 35.6 °F 28.0 °F 15.8 °F 44% 30.18 in 10.0 mi North 10.4 mph - N/A   Mostly Cloudy
6:55 PM 35.6 °F 27.5 °F 15.8 °F 44% 30.18 in 10.0 mi North 11.5 mph - N/A   Mostly Cloudy
7:15 PM 35.6 °F 28.6 °F 15.8 °F 44% 30.18 in 10.0 mi NNE 9.2 mph - N/A   Mostly Cloudy
7:35 PM 33.8 °F 25.8 °F 15.8 °F 48% 30.18 in 10.0 mi North 10.4 mph - 0.32 in Snow Light Snow
7:55 PM 32.0 °F 23.0 °F 15.8 °F 51% 30.18 in 10.0 mi NE 11.5 mph - 0.32 in   Mostly Cloudy
8:15 PM 32.0 °F 23.0 °F 14.0 °F 48% 30.19 in 10.0 mi NE 11.5 mph - N/A   Scattered Clouds
8:35 PM 32.0 °F 21.6 °F 15.8 °F 51% 30.20 in 10.0 mi NNE 15.0 mph - 0.11 in Snow Light Snow
8:55 PM 30.2 °F 19.8 °F 15.8 °F 55% 30.21 in 10.0 mi NNE 13.8 mph - 0.11 in   Mostly Cloudy
9:15 PM 28.4 °F 17.5 °F 15.8 °F 59% 30.22 in 10.0 mi NNE 13.8 mph 20.7 mph N/A   Mostly Cloudy
9:35 PM 28.4 °F 18.0 °F 15.8 °F 59% 30.23 in 10.0 mi NNE 12.7 mph - N/A   Overcast
9:55 PM 26.6 °F 16.8 °F 14.0 °F 59% 30.24 in 10.0 mi NE 10.4 mph - N/A   Overcast
10:15 PM 28.4 °F 18.0 °F 14.0 °F 55% 30.24 in 10.0 mi NNE 12.7 mph - N/A   Overcast
10:35 PM 28.4 °F 18.0 °F 14.0 °F 55% 30.25 in 10.0 mi NNE 12.7 mph - N/A   Overcast
10:55 PM 26.6 °F 15.7 °F 14.0 °F 59% 30.26 in 10.0 mi NNE 12.7 mph - N/A   Overcast
11:15 PM 26.6 °F 16.2 °F 15.8 °F 64% 30.27 in 10.0 mi North 11.5 mph - N/A   Overcast
11:35 PM 26.6 °F 14.3 °F 17.6 °F 69% 30.27 in 8.0 mi NNE 16.1 mph - N/A Rain Light Freezing Rain
11:55 PM 24.8 °F 12.4 °F 15.8 °F 69% 30.28 in 10.0 mi North 15.0 mph - N/A Rain Light Freezing Rain